Leadville, CO

6:32 PM MST on November 22, 2019 (GMT -0700)
Lake County

Weather History for KLXV - September, 2019

Change the Weather History Date:

Sunday, September 15, 2019

  Actual Average Record
Temperature  
Mean Temperature 49 °F -  
Max Temperature 68 °F 61 °F 74 °F (2018)
Min Temperature 30 °F 31 °F 20 °F (1993)
Degree Days  
Heating Degree Days 16 19  
Month to date heating degree days 194 255  
Since 1 July heating degree days 787 977  
Cooling Degree Days 0 0  
Month to date cooling degree days 0 0  
Year to date cooling degree days 0 0  
Moisture  
Dew Point 21 °F    
Average Humidity 35    
Maximum Humidity 58    
Minimum Humidity 12    
Precipitation  
Precipitation 0.00 in 0.03 in 0.22 in (1976)
Month to date precipitation 0.31 0.61  
Year to date precipitation 12.85 9.56  
Sea Level Pressure  
Sea Level Pressure 30.03 in    
Wind  
Wind Speed 4 mph (SW)    
Max Wind Speed 17 mph    
Max Gust Speed 23 mph    
Visibility 10 miles    
Events      
T = Trace of Precipitation, MM = Missing Value Source: NWS Daily Summary

Daily Weather History Graph

Daily Weather History Graph

Search for Another Location

Airport or City:

Astronomy

Sep. 15, 2019 Rise Set
Actual Time 6:46 AM MDT 7:13 PM MDT
Civil Twilight 6:19 AM MDT 7:40 PM MDT
Nautical Twilight 5:47 AM MDT 8:12 PM MDT
Astronomical Twilight 5:15 AM MDT 8:44 PM MDT
Moon 8:23 PM MDT (9/15) 7:59 AM MDT (9/15)
Length of Visible Light 13h 21m
Length of Day
12h 27m
Full, 98% of the Moon is Illuminated
Sep 15
Full
Sep 21
Last Quarter
Sep 28
New
Oct 5
First Quarter
Oct 13
Full

Hourly Weather History & Observations

Time (MDT) Temp. Windchill Dew Point Humidity Pressure Visibility Wind Dir Wind Speed Gust Speed Precip Events Conditions
12:53 AM 41.0 °F - 15.1 °F 35% 30.05 in 10.0 mi Calm Calm - N/A   Clear
1:53 AM 37.9 °F 35.5 °F 15.1 °F 39% 30.07 in 10.0 mi North 3.5 mph - N/A   Clear
2:53 AM 37.0 °F 32.4 °F 17.1 °F 44% 30.06 in 10.0 mi NNE 5.8 mph - N/A   Clear
3:53 AM 35.1 °F - 16.0 °F 46% 30.06 in 10.0 mi Calm Calm - N/A   Clear
4:53 AM 37.9 °F 34.4 °F 17.1 °F 43% 30.05 in 10.0 mi South 4.6 mph - N/A   Clear
5:53 AM 37.9 °F 33.5 °F 16.0 °F 41% 30.06 in 10.0 mi ENE 5.8 mph - N/A   Clear
6:53 AM 32.0 °F 27.5 °F 16.0 °F 52% 30.13 in 10.0 mi NNE 4.6 mph - N/A   Clear
7:53 AM 37.9 °F - 18.0 °F 45% 30.15 in 10.0 mi Calm Calm - N/A   Clear
8:53 AM 48.9 °F - 21.0 °F 33% 30.13 in 10.0 mi Calm Calm - N/A   Clear
9:53 AM 55.9 °F - 19.9 °F 25% 30.06 in 10.0 mi Calm Calm - N/A   Clear
10:53 AM 64.0 °F - 18.0 °F 17% 30.03 in 10.0 mi Calm Calm - N/A   Clear
11:53 AM 66.0 °F - 16.0 °F 15% 29.99 in 10.0 mi WSW 8.1 mph - N/A   Clear
1:53 PM 66.0 °F - 16.0 °F 15% 29.96 in 10.0 mi Variable 3.5 mph 18.4 mph N/A   Clear
2:53 PM 66.9 °F - 17.1 °F 15% 29.94 in 10.0 mi South 12.7 mph 21.9 mph N/A   Clear
3:53 PM 66.0 °F - 19.9 °F 17% 29.93 in 10.0 mi SSW 12.7 mph - N/A   Clear
4:53 PM 64.0 °F - 21.0 °F 19% 29.93 in 10.0 mi South 13.8 mph - N/A   Clear
5:53 PM 61.0 °F - 23.0 °F 23% 29.96 in 10.0 mi WNW 4.6 mph - N/A   Overcast
6:53 PM 59.0 °F - 21.9 °F 24% 30.02 in 10.0 mi WSW 5.8 mph - N/A   Overcast
7:16 PM 57.0 °F - 30.9 °F 37% 30.40 in 10.0 mi South 10.4 mph - N/A   Mostly Cloudy
7:53 PM 55.0 °F - 32.0 °F 42% 30.01 in 10.0 mi SSW 6.9 mph - N/A   Overcast
8:53 PM 52.0 °F - 30.9 °F 45% 29.98 in 10.0 mi Calm Calm - N/A   Overcast
9:53 PM 50.0 °F - 34.0 °F 54% 29.94 in 10.0 mi Calm Calm - N/A   Mostly Cloudy
10:53 PM 46.9 °F - 32.0 °F 56% 29.89 in 10.0 mi North 3.5 mph - N/A   Partly Cloudy